Location: Namasale
(1.5000°N, 32.6167°E)
Time: 00:02:13
(UTC+00:00)

Transit 2A Rocket - All Passes

Search period start: 19 April 2021 00:00
Search period end: 29 April 2021 00:00
Orbit: 594 x 908 km, 66.7° (Epoch: 18 April)

Date Brightness Start Highest point End Pass type
(mag) Time Alt. Az. Time Alt. Az. Time Alt. Az.
19 Apr - 00:31:29 10° NW 00:35:46 26° WSW 00:40:23 10° SSW night (unlit)
19 Apr - 11:20:27 10° S 11:25:30 48° ESE 11:30:06 10° NE daylight
19 Apr - 23:48:09 10° NNW 23:53:08 56° WSW 23:58:37 10° S night (unlit)
20 Apr - 10:38:52 10° SSE 10:42:52 22° ESE 10:46:35 10° ENE daylight
20 Apr - 12:21:27 10° WSW 12:25:08 20° WNW 12:28:38 10° NNW daylight
20 Apr - 23:05:33 10° NNW 23:10:35 69° ENE 23:16:08 10° SSE night (unlit)
21 Apr - 11:37:45 10° SW 11:42:40 44° WNW 11:47:09 10° N daylight
21 Apr - 22:23:35 10° N 22:28:05 32° ENE 22:32:57 10° SE night (unlit)
22 Apr - 00:07:11 10° WNW 00:10:30 17° WSW 00:13:58 10° SSW night (unlit)
22 Apr - 10:54:57 10° SSW 11:00:09 81° ESE 11:04:52 10° NNE daylight
22 Apr - 21:42:41 10° NE 21:45:36 15° ENE 21:48:38 10° ESE night (unlit)
22 Apr - 23:23:10 10° NW 23:27:49 34° WSW 23:32:54 10° S night (unlit)
23 Apr - 10:12:48 10° S 10:17:33 36° ESE 10:21:54 10° NE daylight
23 Apr - 11:58:00 10° W 11:59:43 12° WNW 12:01:25 10° NW daylight
23 Apr - 22:40:07 10° NNW 22:45:13 74° WSW 22:50:51 10° SSE night (unlit)
24 Apr - 09:31:40 10° SSE 09:34:54 17° ESE 09:37:58 10° ENE daylight
24 Apr - 11:13:02 10° SW 11:17:15 26° WNW 11:21:10 10° NNW daylight
24 Apr - 21:57:43 10° N 22:02:42 52° ENE 22:08:07 10° SSE night (unlit)
25 Apr - 10:29:42 10° SSW 10:34:46 60° WNW 10:39:22 10° N daylight
25 Apr - 21:16:03 10° NNE 21:20:12 25° ENE 21:24:39 10° SE night (unlit)
25 Apr - 22:58:32 10° WNW 23:02:32 22° WSW 23:06:48 10° SSW night (unlit)
26 Apr - 09:47:08 10° S 09:52:13 60° ESE 09:56:51 10° NNE daylight
26 Apr - 20:36:04 10° NE 20:37:42 11° ENE 20:39:23 10° E night (unlit)
26 Apr - 22:14:57 10° NW 22:19:54 45° WSW 22:25:17 10° S night (unlit)
27 Apr - 09:05:17 10° SSE 09:09:36 27° ESE 09:13:36 10° NE daylight
27 Apr - 10:48:53 10° WSW 10:51:50 16° WNW 10:54:39 10° NW daylight
27 Apr - 21:32:09 10° NNW 21:37:18 86° ENE 21:42:59 10° SSE night (unlit)
28 Apr - 08:24:54 10° SE 08:26:55 12° ESE 08:28:54 10° E daylight
28 Apr - 10:04:46 10° SW 10:09:21 34° WNW 10:13:35 10° N daylight
28 Apr - 20:49:59 10° N 20:54:48 40° ENE 21:00:02 10° SE night (unlit)
28 Apr - 22:34:38 10° W 22:37:16 14° WSW 22:40:01 10° SW night (unlit)
